Terug naar catalogus

YAOGAN 30

ActiefMilitairSSO
NORAD 41473·PAYLOAD·🇨🇳 China

Gelanceerd May 15, 2016 vanaf Jiuquan Satellite Launch Center

Loading…

Volgende Passages (komende 24 uur)

TLE

VersSource: Space-Track

Epoch: Sep 14, 2026, 14:57 UTC

1 41473U 16029A   26257.62334821  .00000078  00000-0  18589-4 0  9998
2 41473  97.8925 305.5438 0014600 306.8291  53.1579 14.76240498556864

Volg YAOGAN 30 in realtime met AllMySat

Download on the App Store